[Iaude] MPEC U83: 2023 UZ [a=1.76,e=0.55,i=2.6,H=27.3]
    mpec at marsden.cfa.harvard.edu 
    mpec at marsden.cfa.harvard.edu
       
    Wed Oct 18 10:06:31 EDT 2023
    
    
  
M.P.E.C. 2023-U83                              Issued 2023 October 18, 14:05 UT
     The Minor Planet Electronic Circulars contain information on unusual
         minor planets, routine data on comets and natural satellites,
         and occasional editorial announcements.  They are published
    on behalf of Division F of the International Astronomical Union by the
          Minor Planet Center, Smithsonian Astrophysical Observatory,
                          Cambridge, MA 02138, U.S.A.
			  
             Prepared using the Tamkin Foundation Computer Network
                              MPC at CFA.HARVARD.EDU
            URL https://www.minorplanetcenter.net/    ISSN 1523-6714
                                    2023 UZ                                     
Observations:
     K23U00Z* C2023 10 17.28758000 47 07.573+07 51 45.45         21.33wXEU083F52
     K23U00Z  C2023 10 17.29843800 47 05.128+07 52 44.66         21.16wXEU083F52
     K23U00Z  C2023 10 17.30930400 47 02.636+07 53 43.80         21.26wXEU083F52
     K23U00Z  C2023 10 17.32020300 47 00.105+07 54 43.14         21.05wXEU083F52
     K23U00Z  C2023 10 17.42018200 46 35.483+08 03 53.76         20.78GVEU083F51
     K23U00Z  C2023 10 17.42082200 46 35.327+08 03 57.20         20.83GVEU083F51
     K23U00Z  C2023 10 17.43187000 46 24.810+08 03 58.15         20.6 GVEU083H01
     K23U00Z  C2023 10 17.44052300 46 23.049+08 04 45.22         20.7 GVEU083H01
     K23U00Z  C2023 10 17.44867800 46 21.415+08 05 29.83         20.6 GVEU083H01
     K23U00Z  C2023 10 17.45255000 46 20.643+08 05 51.13         20.6 GVEU083H01
     K23U00Z !C2023 10 18.04736 00 44 35.87 +09 09 27.3          20.9 GVEU083J04
     K23U00Z !C2023 10 18.05190 00 44 34.48 +09 09 59.4          20.2 GVEU083J04
     K23U00Z KC2023 10 18.12361700 44 29.55 +09 17 55.0          21.0 VuEU083H21
     K23U00Z KC2023 10 18.12641500 44 28.73 +09 18 16.0          20.7 VuEU083H21
     K23U00Z KC2023 10 18.12921300 44 27.91 +09 18 36.9          20.6 VuEU083H21
     K23U00Z KC2023 10 18.13201000 44 27.09 +09 18 57.9          20.6 VuEU083H21
     K23U00Z KC2023 10 18.13499500 44 26.22 +09 19 20.1                uEU083H21
     K23U00Z  C2023 10 18.20151 00 44 11.64 +09 28 08.1          20.4 GVEU083I52
     K23U00Z  C2023 10 18.20205 00 44 11.49 +09 28 12.4          21.3 GVEU083I52
     K23U00Z  C2023 10 18.20259 00 44 11.34 +09 28 16.8          20.5 GVEU083I52
     K23U00Z  C2023 10 18.20837 00 44 09.52 +09 29 01.2          20.8 GVEU083I52
     K23U00Z 3C2023 10 18.41839200 43 11.067+09 58 04.98         20.31GVEU083T14
     K23U00Z 3C2023 10 18.41937600 43 10.718+09 58 13.18         20.30GVEU083T14
     K23U00Z 3C2023 10 18.42035400 43 10.368+09 58 21.37         20.42GVEU083T14
Observer details:
F51 Pan-STARRS 1, Haleakala.  Observers J. Bulger, T. Lowe, P. Minguez, A.
    Schultz, I. Smith.  Measurers K. Chambers, T. de Boer, J. Fairlamb, H.
    Gao, M. Huber, C.-C. Lin, E. Magnier, Y. Ramanjooloo, R. Wainscoat, R.
    Weryk.  1.8-m Ritchey-Chretien + CCD.
F52 Pan-STARRS 2, Haleakala.  Observers J. Bulger, T. Lowe, P. Minguez, A.
    Schultz, I. Smith.  Measurers K. Chambers, T. de Boer, J. Fairlamb, H.
    Gao, M. Huber, C.-C. Lin, E. Magnier, Y. Ramanjooloo, R. Wainscoat, R.
    Weryk.  1.8-m Ritchey-Chretien + CCD.
H01 Magdalena Ridge Observatory, Socorro.  Observers W. H. Ryan, E. V. Ryan.
    Measurer W. H. Ryan.  2.4-m f/8.9 Ritchey-Chretien + CCD.
H21 Astronomical Research Observatory, Westfield.  Observer R. Holmes.
    Measurers T. Linder, R. Holmes, L. Horn.  0.76-m f/3.0 astrograph + CCD.
I52 Steward Observatory, Mt. Lemmon Station.  Observer G. J. Leonard.
    Measurers E. C. Beshore, D. Fay, J. B. Fazekas, D. C. Fuls, A. R. Gibbs,
    A. D. Grauer, H. Groeller, J. K. Hogan, R. A. Kowalski, S. M. Larson, G.
    J. Leonard, D. Rankin, R. L. Seaman, F. C. Shelly, K. W. Wierzchos.  1.0-m
    f/2.0 prime focus + CCD.
J04 ESA Optical Ground Station, Tenerife.  Observers P. Ruiz, M. Micheli, F.
    Ocana, L. Conversi.  Measurers R. Kresken, M. Micheli, F. Ocana, A.
    Knofel, M. Busch, E. Schwab.  1.0-m f/4.4 reflector + CCD.
T14 Canada-France-Hawaii Telescope, Maunakea.  Observers R. Wainscoat, H.
    Januszewski, T. Burdullis.  Measurers R. Weryk, R. Wainscoat.  3.6-m f/4.1
    reflector + CCD.
Orbital elements:
2023 UZ                                                  Earth MOID = 0.0063 AU
Epoch 2023 Sept. 13.0 TT = JDT 2460200.5                Bell                    
M 325.10030              (2000.0)            P               Q                  
n   0.42057835     Peri.   71.43817     -0.03669650     -0.99919919             
a   1.7642960      Node    20.68443     +0.89899719     -0.03997743             
e   0.5457577      Incl.    2.58781     +0.43641428     -0.00166703             
P   2.34           H   27.36          G   0.15           U   8                  
Residuals in seconds of arc
231017 F52  0.0   0.2-    231017 H01  0.0   0.0     231018 H21  0.1-  0.1+
231017 F52  0.1-  0.1+    231017 H01  0.1-  0.1+    231018 I52  0.2-  0.1-
231017 F52  0.1-  0.1+    231018 J04  0.1+  0.0     231018 I52  0.0   0.0
231017 F52  0.0   0.0     231018 J04  0.1-  0.1-    231018 I52  0.3+  0.3+
231017 F51  0.0   0.0     231018 H21  0.2-  0.1+    231018 I52  0.0   0.0
231017 F51  0.1+  0.2-    231018 H21  0.2-  0.2+    231018 T14  0.0   0.0
231017 H01  0.0   0.1+    231018 H21  0.3-  0.2+    231018 T14  0.0   0.0
231017 H01  0.0   0.0     231018 H21  0.3-  0.2+    231018 T14  0.0   0.0
Ephemeris:
2023 UZ                  a,e,i = 1.76, 0.55, 3                   q = 0.8014
Date    TT    R. A. (2000) Decl.     Delta      r    Elong.  Phase     V
2023 09 18    00 56 49.9 +01 24 36   0.2883  1.2804   160.4    15.2    26.0
...
2023 10 03    00 57 34.3 +02 12 21   0.1541  1.1542   173.9     5.3    24.0
...
2023 10 11    00 54 52.6 +03 36 05   0.08958 1.0880   176.3     3.4    22.6
...
2023 10 17    00 47 42.5 +07 28 22   0.04344 1.0397   170.6     9.0    21.2
2023 10 18    00 44 49.9 +09 05 07   0.03592 1.0319   169.1    10.5    20.9
2023 10 19    00 40 26.7 +11 32 43   0.02846 1.0240   167.0    12.6    20.4
...
2023 10 25    13 31 33.9 +18 00 35   0.01876 0.9785    30.4   149.0    26.9
...
2023 11 02    13 07 55.8 +03 55 36   0.07913 0.9225    26.8   151.0    30.3
...
2023 11 17    13 11 11.2 -00 00 14   0.2007  0.8403    38.2   133.3    29.5
M. P. C. Staff               (C) Copyright 2023 MPC           M.P.E.C. 2023-U83
    
    
More information about the Iaude
mailing list